Location: Unspecified
(0.0000°N, 0.0000°E)
Time: 23:12:43
(UTC+00:00)

Explorer 27 - Pass Details

Date: 19 May 2026
Orbit: 932 x 1295 km, 41.2° (Epoch: 7 June)

Event Time Altitude Azimuth Distance (km) Brightness Sun altitude
Rises 18:18:52 0° 243° (WSW) 4,268 12.0 -5.3°
Reaches altitude 10° 18:22:01 10° 250° (WSW) 3,292 11.6 -6.0°
Maximum altitude 18:29:33 39° 316° (NW) 1,791 10.0 -7.8°
Drops below altitude 10° 18:36:45 10° 23° (NNE) 3,139 10.6 -9.4°
Sets 18:39:42 0° 31° (NNE) 4,051 11.1 -10.1°
